Weather History for Graham, TX

Change the Weather History Date:

Saturday, June 15, 2013

  Actual Average (KMWL) Record (KMWL)
Temperature  
Mean Temperature 80 °F -  
Max Temperature 87 °F 88 °F 102 °F (2008)
Min Temperature 74 °F 68 °F 62 °F (2002)
Cooling Degree Days 15    
Growing Degree Days 30 (Base 50)    
Moisture  
Dew Point 66 °F    
Average Humidity 65    
Maximum Humidity 80    
Minimum Humidity 41    
Precipitation  
Precipitation 0.10 in - - ()
Sea Level Pressure  
Sea Level Pressure 29.96 in    
Wind  
Wind Speed 2 mph (South)    
Max Wind Speed 12 mph    
Max Gust Speed 18 mph    
Visibility 10 miles    
Events Rain    
Averages and records for this station are not official NWS values.
T = Trace of Precipitation, MM = Missing Value Source: NWS Daily Summary

Daily Weather History Graph

Daily Weather History Graph

Search for Another Location

Airport:

Trip Planner

Search our weather history database for the weather conditions in past years. The results will help you decide how hot, cold, wet, or windy it might be!

Date:

Astronomy

Jun. 15, 2013 Rise Set
Actual Time 6:24 AM CDT 8:44 PM CDT
Civil Twilight 5:56 AM CDT 9:13 PM CDT
Nautical Twilight 5:20 AM CDT 9:48 PM CDT
Astronomical Twilight 4:42 AM CDT 10:27 PM CDT
Moon 12:42 PM CDT (6/15) 12:37 AM CDT (6/15)
Length of Visible Light 15h 17m
Length of Day
14h 19m
Waxing Crescent, 40% of the Moon is Illuminated
Jun 15
Waxing Crescent
Jun 16
First Quarter
Jun 23
Full
Jun 29
Last Quarter
Jul 8
New

Hourly Weather History & Observations

Time (CDT) Temp. Heat Index Dew Point Humidity Pressure Visibility Wind Dir Wind Speed Gust Speed Precip Events Conditions
12:15 AM 78.3 °F - 65.7 °F 65% 29.97 in 10.0 mi Calm Calm - N/A   Scattered Clouds
12:35 AM 78.1 °F - 66.2 °F 67% 29.97 in 10.0 mi Calm Calm - N/A   Scattered Clouds
12:55 AM 77.2 °F - 66.0 °F 68% 29.97 in 10.0 mi Calm Calm - N/A   Clear
1:15 AM 77.4 °F - 65.8 °F 67% 29.96 in 10.0 mi Calm Calm - N/A   Clear
1:35 AM 76.6 °F - 65.7 °F 69% 29.96 in 10.0 mi Calm Calm - N/A   Clear
1:55 AM 76.5 °F - 66.2 °F 70% 29.96 in 10.0 mi Calm Calm - N/A   Clear
2:15 AM 76.1 °F - 65.8 °F 70% 29.96 in 10.0 mi Calm Calm - N/A   Clear
2:35 AM 75.6 °F - 66.2 °F 73% 29.95 in 10.0 mi Calm Calm - N/A   Clear
2:55 AM 75.9 °F - 65.8 °F 71% 29.95 in 10.0 mi Calm Calm - N/A   Clear
3:15 AM 75.2 °F - 66.2 °F 73% 29.95 in 10.0 mi Calm Calm - N/A   Clear
3:35 AM 75.7 °F - 66.2 °F 72% 29.95 in 10.0 mi Calm Calm - N/A   Clear
3:55 AM 76.1 °F - 65.8 °F 70% 29.94 in 10.0 mi Calm Calm - N/A   Clear
4:15 AM 75.9 °F - 65.8 °F 71% 29.94 in 10.0 mi Calm Calm - N/A   Clear
4:35 AM 75.0 °F - 65.8 °F 73% 29.93 in 10.0 mi Calm Calm - N/A   Clear
4:55 AM 75.4 °F - 65.3 °F 71% 29.93 in 10.0 mi Calm Calm - N/A   Clear
5:15 AM 74.7 °F - 66.2 °F 75% 29.94 in 10.0 mi Calm Calm - N/A   Clear
5:35 AM 74.8 °F - 66.6 °F 75% 29.95 in 10.0 mi Calm Calm - N/A   Clear
5:55 AM 75.2 °F - 65.7 °F 72% 29.96 in 10.0 mi Calm Calm - N/A   Clear
6:15 AM 75.2 °F - 66.2 °F 73% 29.96 in 10.0 mi Calm Calm - N/A   Scattered Clouds
6:35 AM 75.6 °F - 66.0 °F 72% 29.96 in 10.0 mi Calm Calm - N/A   Scattered Clouds
6:55 AM 75.4 °F - 66.4 °F 73% 29.97 in 10.0 mi Calm Calm - N/A   Clear
7:15 AM 76.1 °F - 66.2 °F 71% 29.97 in 10.0 mi Calm Calm - N/A   Clear
7:35 AM 76.1 °F - 67.3 °F 74% 29.97 in 10.0 mi Calm Calm - N/A   Clear
7:55 AM 77.4 °F - 66.4 °F 69% 29.97 in 10.0 mi Calm Calm - N/A   Clear
8:15 AM 77.5 °F - 65.8 °F 67% 29.98 in 10.0 mi West 5.8 mph - N/A   Scattered Clouds
8:35 AM 77.4 °F - 66.7 °F 70% 29.99 in 10.0 mi WNW 3.5 mph - N/A   Clear
8:55 AM 77.9 °F - 67.1 °F 69% 30.00 in 10.0 mi NNW 3.5 mph - N/A   Scattered Clouds
9:15 AM 77.9 °F - 66.9 °F 69% 30.01 in 10.0 mi North 4.6 mph - N/A   Mostly Cloudy
9:35 AM 78.3 °F - 67.1 °F 68% 30.02 in 10.0 mi WNW 3.5 mph - N/A   Overcast
9:55 AM 78.1 °F - 66.9 °F 68% 30.02 in 10.0 mi West 8.1 mph - N/A   Mostly Cloudy
10:15 AM 78.3 °F - 66.0 °F 66% 30.02 in 10.0 mi West 5.8 mph - N/A   Mostly Cloudy
10:35 AM 78.8 °F - 66.0 °F 65% 30.01 in 10.0 mi NW 5.8 mph - N/A   Mostly Cloudy
10:55 AM 79.3 °F - 66.0 °F 64% 30.01 in 10.0 mi Calm Calm - N/A   Overcast
11:15 AM 80.6 °F 82.7 °F 66.0 °F 61% 30.01 in 10.0 mi Calm Calm - N/A   Overcast
11:35 AM 81.0 °F 83.2 °F 66.4 °F 61% 30.02 in 10.0 mi NNW 3.5 mph - N/A   Mostly Cloudy
11:55 AM 79.9 °F - 67.5 °F 66% 30.02 in 10.0 mi West 5.8 mph - N/A Rain Light Rain
12:15 PM 76.5 °F - 69.8 °F 80% 30.02 in 10.0 mi West 4.6 mph - 0.04 in Rain Light Rain
12:35 PM 79.0 °F - 68.7 °F 71% 30.01 in 10.0 mi Calm Calm - 0.04 in   Clear
12:55 PM 80.2 °F 83.2 °F 69.1 °F 69% 30.01 in 10.0 mi Calm Calm - 0.04 in   Scattered Clouds
1:15 PM 81.1 °F 84.0 °F 68.2 °F 65% 30.00 in 10.0 mi Calm Calm - N/A   Mostly Cloudy
1:35 PM 81.3 °F 84.1 °F 68.0 °F 64% 30.00 in 10.0 mi SSW 3.5 mph - N/A Rain Rain
1:55 PM 78.4 °F - 71.4 °F 79% 29.99 in 10.0 mi SSW 3.5 mph - 0.06 in   Scattered Clouds
2:15 PM 82.0 °F 86.1 °F 70.5 °F 68% 29.98 in 10.0 mi Calm Calm - N/A   Clear
2:35 PM 83.1 °F 87.6 °F 70.9 °F 66% 29.98 in 10.0 mi South 4.6 mph - N/A   Clear
2:55 PM 84.9 °F 88.8 °F 69.3 °F 59% 29.97 in 10.0 mi SSE 8.1 mph - N/A   Clear
3:15 PM 85.1 °F 88.2 °F 67.8 °F 56% 29.97 in 10.0 mi SSE 5.8 mph - N/A   Clear
3:35 PM 86.4 °F 90.0 °F 68.7 °F 55% 29.97 in 10.0 mi South 11.5 mph 18.4 mph N/A   Clear
3:55 PM 84.0 °F 85.4 °F 63.9 °F 51% 29.97 in 10.0 mi South 10.4 mph 17.3 mph N/A   Clear
4:15 PM 81.5 °F 84.2 °F 67.6 °F 63% 29.97 in 10.0 mi South 10.4 mph 17.3 mph N/A   Clear
4:35 PM 82.0 °F 84.9 °F 67.8 °F 62% 29.96 in 10.0 mi SSE 8.1 mph - N/A   Clear
4:55 PM 84.4 °F 86.8 °F 66.7 °F 55% 29.95 in 10.0 mi SE 4.6 mph - N/A   Clear
5:15 PM 86.0 °F 88.2 °F 66.2 °F 51% 29.94 in 10.0 mi SSW 10.4 mph - N/A   Clear
5:35 PM 83.8 °F 85.6 °F 65.1 °F 53% 29.93 in 10.0 mi South 5.8 mph - N/A   Scattered Clouds
5:55 PM 85.8 °F 86.8 °F 63.7 °F 47% 29.92 in 10.0 mi South 5.8 mph - N/A   Mostly Cloudy
6:15 PM 86.0 °F 86.8 °F 63.1 °F 46% 29.90 in 10.0 mi South 8.1 mph - N/A   Scattered Clouds
6:35 PM 86.9 °F 86.7 °F 60.6 °F 41% 29.90 in 10.0 mi SSE 6.9 mph - N/A   Scattered Clouds
6:55 PM 86.2 °F 86.3 °F 61.3 °F 43% 29.89 in 10.0 mi South 4.6 mph - N/A   Clear
7:15 PM 85.3 °F 85.7 °F 61.9 °F 45% 29.90 in 10.0 mi South 6.9 mph - N/A   Clear
7:35 PM 84.7 °F 85.6 °F 63.3 °F 48% 29.90 in 10.0 mi South 4.6 mph - N/A   Clear
7:55 PM 84.2 °F 84.8 °F 62.1 °F 47% 29.90 in 10.0 mi SSE 3.5 mph - N/A   Clear
8:15 PM 83.1 °F 83.9 °F 62.4 °F 49% 29.91 in 10.0 mi SSE 3.5 mph - N/A   Clear
8:35 PM 81.5 °F 82.5 °F 62.1 °F 52% 29.91 in 10.0 mi SE 3.5 mph - N/A   Clear
8:55 PM 79.9 °F - 63.0 °F 56% 29.91 in 10.0 mi SE 3.5 mph - N/A   Clear
9:15 PM 79.0 °F - 63.5 °F 59% 29.92 in 10.0 mi SE 3.5 mph - N/A   Clear
9:35 PM 78.3 °F - 63.9 °F 61% 29.92 in 10.0 mi Calm Calm - N/A   Clear
9:55 PM 77.5 °F - 64.4 °F 64% 29.93 in 10.0 mi ESE 3.5 mph - N/A   Clear
10:15 PM 77.4 °F - 65.7 °F 67% 29.94 in 10.0 mi ESE 4.6 mph - N/A   Clear
10:35 PM 77.4 °F - 67.1 °F 71% 29.95 in 10.0 mi ESE 3.5 mph - N/A   Clear
10:55 PM 77.4 °F - 68.7 °F 75% 29.96 in 10.0 mi East 4.6 mph - N/A   Clear
11:15 PM 77.4 °F - 69.4 °F 76% 29.96 in 10.0 mi ESE 4.6 mph - N/A   Clear
11:35 PM 77.0 °F - 69.4 °F 77% 29.96 in 10.0 mi ESE 3.5 mph - N/A   Clear
11:55 PM 76.8 °F - 69.8 °F 79% 29.95 in 10.0 mi ESE 3.5 mph - N/A   Clear